Regional Weather Roundup
Issued by NWS Midland/Odessa, TX

Skip options and go directly to product.
Home | Oldest Version | Next Version | Current Version | All | Text Only | Save Text | Print | Product List | Glossary On

Skip product version selection by date and time.   
192
ASUS44 KMAF 251001
RWRMAF
MIDLAND AREA WEATHER ROUNDUP
NATIONAL WEATHER SERVICE MIDLAND TX
500 AM CDT SAT JUN 25 2016

...IN SOUTHWEST TEXAS AND SOUTHEAST NEW MEXICO...

CITY           SKY/WX    TMP DP  RH WIND       PRES   REMARKS
ALPINE         CLEAR     69  55  60 SW7       30.13S
ANDREWS        FAIR      70  60  71 SE6       30.03S
ARTESIA        CLEAR     73  59  60 SE13      30.01S
BIG SPRING     CLOUDY    73  63  71 SE14      30.03S
CARLSBAD       CLEAR     76  60  57 SE8       29.99F
DRYDEN           N/A     78  67  68 E16       29.95S
FORT STOCKTON  PTCLDY    74  60  61 SE14      29.98S
GUAD PASS      CLEAR     67  55  65 NE15        N/A
HOBBS          CLEAR     68  57  68 SW3       30.07R
MARFA          CLEAR    N/A N/A N/A NE5       30.12F
MIDLAND AIRPK  PTCLDY    76  63  65 SE12      30.01S
MIDLAND INTL   MOCLDY    73  62  68 SE9       30.00S
ODESSA         PTCLDY    74  61  63 SE10      30.01S
PECOS          CLEAR     74  59  59 E12       29.95S
PRESIDIO       FAIR      80  55  41 N7        29.96S
SEMINOLE       CLEAR     70  59  68 SE6       30.04S
SNYDER           N/A     71  63  75 SE8       30.02S
WINK           CLEAR     73  60  63 SE12      29.97R
$$
...OTHER STATIONS IN TEXAS...

CITY           SKY/WX    TMP DP  RH WIND       PRES   REMARKS
ABILENE        CLOUDY    76  70  82 S9        30.01S
AMARILLO       CLEAR     71  58  63 S17       30.02F
AUSTIN         MOCLDY    76  74  93 E5        30.02S
BROWNSVILLE    MOCLDY    82  76  81 SE15      29.96S
CORPUS CHRISTI LGT RAIN  82  77  84 S8        29.97S
DALLAS FTW     CLEAR     81  70  69 S15       30.00R
DEL RIO        MOCLDY    79  70  74 E13       29.94S
EL PASO        MOCLDY    78  54  43 CALM      30.02F
HOUSTON INT    MOCLDY    76  75  97 S3        30.04R
LUBBOCK        CLEAR     74  59  59 S15       30.03R
SAN ANGELO     MOCLDY    73  67  81 SE5       30.00S
SAN ANTONIO    CLOUDY    78  74  87 S12       30.01S
WACO           MOCLDY    77  73  87 S12       30.02S
WICHITA FALLS  NOT AVBL
$$
...OTHER LOCATIONS IN NEW MEXICO...

CITY           SKY/WX    TMP DP  RH WIND       PRES   REMARKS
ALAMAGORDO     CLOUDY    72  59  64 W7        30.06R
ALBUQUERQUE    LGT RAIN  73  52  47 SW12      30.14R
CANNON AFB     CLEAR     71  54  55 SW12      30.07F
CLOVIS         CLEAR     66  52  59 S8        30.07F
HOLLOMAN AFB   CLOUDY    70  62  76 SW8       30.04S
ROSWELL        PTCLDY    71  57  61 SW6       30.02S
RUIDOSO          N/A     61  50  67 W9        30.24F
SANTA FE       CLOUDY    65  47  52 CALM      30.17R
TRUTH OR CONSE MOCLDY    73  55  53 S9        30.11S
TUCUMCARI      PTCLDY    77  52  41 SW17      30.00S
$$

USA.gov is the U.S. government's official web portal to all federal, state and local government web resources and services.